[[{"header":{"parameterUnit":"m.s-1","parameterCategory":2,"la1":30.2991,"la2":30.254,"lo1":-89.0895,"lo2":-89.0444,"dy":0.0017,"dx":0.0017,"nx":28,"ny":28,"refTime":"2025-05-17T03:00:00:Z","depth":"0","parameterNumber":2,"parameterNumberName":"U-component_of_CURRENTS"},"data":[0,0,0,0,0,0,0,0,0,0,0,0,0,0,0,0,0,0,0,0,0,0,0,0,0,0,0,0,0,0,0,0,0,0,0,0,0,0,0,0,0,0,0,0,0,0,0,0,0,0,0,0,0,0,0,0,0,0,0.3712,0.3714,0,0.3881,0.3883,0.3885,0.3904,0.3903,0.3901,0.39,0.3989,0.3993,0.3996,0,0,0,0,0,0,0,0,0,0,0,0,0,0.3557,0.3559,0.3711,0.3714,0.3716,0.3881,0.3883,0.3886,0.3904,0.3903,0.3901,0.3899,0.3988,0.3992,0.3997,0,0,0,0,0,0,0,0,0,0,0,0,0,0.3664,0.3559,0.3711,0.3746,0.3751,0.3881,0.3883,0.3886,0.3905,0.3902,0.39,0.3898,0.3986,0.3992,0.3997,0.4081,0,0,0.4015,0.4018,0,0,0,0,0,0,0,0,0.3657,0.3669,0.3739,0.3744,0.375,0.387,0.3862,0.3948,0.3905,0.3845,0.3899,0.3897,0.3944,0.3953,0.399,0.4085,0.4089,0.4016,0.4019,0.4022,0.4023,0,0,0,0,0,0,0,0.365,0.3663,0.3777,0.3741,0.3748,0.3806,0.3817,0.3879,0.3904,0.385,0.3852,0.3874,0.3946,0.3985,0.3992,0.409,0.4015,0.4021,0.4024,0.4026,0.4298,0.4302,0,0,0,0,0,0,0.3626,0.3655,0.3772,0.3783,0.3698,0.381,0.3823,0.3833,0.3905,0.3915,0.3876,0.3874,0.3976,0.3985,0.3995,0.4128,0.4022,0.4027,0.403,0.4295,0.4299,0.4303,0,0,0,0,0,0,0.3622,0.3635,0.3765,0.3724,0.3745,0.3814,0.3827,0.3838,0.3879,0.3925,0.3933,0.3906,0.3974,0.3987,0.4066,0.4129,0.403,0.4035,0.429,0.4296,0.4301,0.4373,0,0,0,0,0,0,0.3617,0.3632,0.3638,0.3722,0.3746,0.3848,0.383,0.3843,0.3897,0.3896,0.3954,0.396,0.3973,0.4058,0.4072,0.4135,0.4039,0.4285,0.4293,0.4299,0.4366,0.4381,0.4393,0,0,0,0,0,0.361,0.3629,0.3637,0.3652,0.3749,0.385,0.3869,0.391,0.39,0.3934,0.3974,0.3958,0.4112,0.4066,0.4081,0.4148,0.4282,0.4291,0.4299,0.436,0.4378,0.4393,0,0,0,0,0,0,0.357,0.3636,0.3645,0.3682,0.3762,0.3853,0.3892,0.3922,0.3985,0.3979,0.4006,0.4017,0.4116,0.4128,0.4076,0.4251,0.4196,0.4208,0.4238,0.4254,0.4268,0.4219,0.4044,0,0,0,0,0,0.3564,0.3587,0.3671,0.3704,0.3741,0.3819,0.3865,0.39,0.3966,0.3991,0.4031,0.4087,0.417,0.4202,0.4267,0.436,0.4362,0.4416,0.4429,0.444,0.4415,0.4504,0.4522,0.4331,0.4331,0.4331,0,0,0.3557,0.3597,0.3611,0.3697,0.3757,0.3841,0.3841,0.3919,0.3987,0.3993,0.4084,0.4138,0.4207,0.4314,0.4359,0.4325,0.4501,0.4451,0.4459,0.4427,0.4515,0.4533,0.4549,0.4337,0.4336,0.4335,0,0,0.3578,0.3595,0.3634,0.3707,0.3802,0.3858,0.3882,0.3982,0.4018,0.4127,0.4153,0.4231,0.4351,0.4406,0.4454,0.4583,0.4575,0.462,0.4643,0.4732,0.4747,0.4761,0.4795,0.481,0.462,0.4621,0.4621,0,0.357,0.363,0.3667,0.3744,0.3808,0.3866,0.3949,0.4015,0.4126,0.4167,0.4159,0.4352,0.4396,0.4533,0.4571,0.461,0.4639,0.4572,0.4746,0.4759,0.4772,0.4803,0.4819,0.4625,0.4625,0.4624,0.4624,0,0.3636,0.3696,0.3733,0.3837,0.391,0.3992,0.4085,0.4149,0.4196,0.4263,0.4393,0.4464,0.4564,0.4616,0.463,0.4759,0.4745,0.4756,0.4692,0.4794,0.4822,0.4837,0.4632,0.463,0.4629,0.4628,0,0,0.3589,0.3745,0.3759,0.3823,0.3964,0.4029,0.4139,0.4259,0.4326,0.4422,0.4524,0.4653,0.4666,0.4718,0.4759,0.4822,0.4936,0.4817,0.482,0.4825,0.5104,0.4962,0.4964,0.4987,0.499,0.4993,0.5089,0,0.3634,0.3769,0.3842,0.3979,0.406,0.4148,0.4248,0.4355,0.4439,0.4548,0.4626,0.4743,0.4718,0.4776,0.4837,0.4934,0.498,0.4905,0.5024,0.5025,0.4867,0.4979,0.4735,0.4789,0.5103,0.5106,0.5108,0,0.3672,0.3763,0.389,0.4047,0.4089,0.4169,0.431,0.4415,0.4569,0.4638,0.4742,0.481,0.4931,0.4892,0.505,0.501,0.5041,0.5087,0.5093,0.4932,0.4911,0.4741,0.4805,0.4711,0.5131,0.5129,0.5127,0,0.3606,0.3789,0.3878,0.394,0.4127,0.4181,0.4275,0.4428,0.4526,0.4691,0.4782,0.4915,0.5011,0.5084,0.5153,0.5126,0.5309,0.5295,0.5183,0.5172,0.4967,0.4931,0.4921,0.5377,0.5377,0.5377,0.5376,0,0.3615,0.3688,0.3847,0.39,0.401,0.4144,0.4265,0.4374,0.4551,0.4681,0.4807,0.4923,0.5067,0.5183,0.5208,0.5239,0.5357,0.5185,0.5198,0.4985,0.4953,0.4859,0.4823,0.538,0.5379,0.5379,0.5378,0,0.3532,0.3638,0.3754,0.3931,0.398,0.4054,0.4253,0.4352,0.4517,0.4692,0.4756,0.4975,0.5115,0.5217,0.5364,0.5307,0.5201,0.5326,0.5032,0.5005,0.475,0.4726,0.4543,0.4415,0.5207,0.5205,0.5202,0,0.3503,0.3552,0.3735,0.3805,0.3881,0.4012,0.411,0.4303,0.4416,0.4708,0.4785,0.499,0.5089,0.5232,0.5189,0.5196,0.5106,0.4965,0.4847,0.4696,0.4684,0.4539,0.4436,0.462,0.4613,0.4607,0.4603,0,0.3461,0.3515,0.3618,0.3753,0.3853,0.3968,0.4113,0.4187,0.4427,0.4558,0.4738,0.4843,0.4979,0.4883,0.4894,0.4867,0.4707,0.4843,0.4794,0.4292,0.403,0.3924,0.4579,0.4552,0.4557,0.4561,0.4564,0.4566,0.3416,0.3469,0.3598,0.3712,0.3816,0.3887,0.3908,0.4057,0.4171,0.4295,0.4533,0.4556,0.4613,0.4571,0.4525,0.4296,0.433,0.4151,0.416,0.4046,0.3823,0.4323,0.4244,0.4247,0.425,0.4252,0.4254,0,0.3367,0.3438,0.3556,0.366,0.3698,0.3789,0.3884,0.3854,0.3873,0.4007,0.409,0.4076,0.3982,0.3998,0.3846,0.3665,0.3506,0.3576,0.3348,0.3302,0.3848,0.3722,0.3395,0.3395,0.3395,0.3396,0.3396,0.3396,0.3351,0.342,0.3481,0.351,0.3557,0.3512,0.3505,0.3466,0.3487,0.3416,0.3358,0.3431,0.361,0.3582,0.3384,0.3283,0.3073,0.2865,0.2946,0.3376,0.3431,0.3483,0.3359,0.2961,0.296,0.2227,0.2222,0.2218]},{"header":{"parameterUnit":"m.s-1","parameterCategory":2,"la1":30.2991,"la2":30.254,"lo1":-89.0895,"lo2":-89.0444,"dy":0.0017,"dx":0.0017,"nx":28,"ny":28,"refTime":"2025-05-17T03:00:00:Z","depth":"0","parameterNumber":3,"parameterNumberName":"V-component_of_CURRENTS"},"data":[0,0,0,0,0,0,0,0,0,0,0,0,0,0,0,0,0,0,0,0,0,0,0,0,0,0,0,0,0,0,0,0,0,0,0,0,0,0,0,0,0,0,0,0,0,0,0,0,0,0,0,0,0,0,0,0,0,0,0.0152,0.0152,0,0.0125,0.0124,0.0124,0.0091,0.0091,0.009,0.0089,0.0054,0.0054,0.0053,0,0,0,0,0,0,0,0,0,0,0,0,0,0.0185,0.0185,0.0152,0.0152,0.0151,0.0125,0.0124,0.0124,0.0091,0.0091,0.009,0.0089,0.0054,0.0054,0.0053,0,0,0,0,0,0,0,0,0,0,0,0,0,0.0167,0.0185,0.0152,0.0131,0.0128,0.0125,0.0124,0.0124,0.0092,0.0091,0.009,0.0089,0.0054,0.0054,0.0053,0.007,0,0,0.0052,0.0051,0,0,0,0,0,0,0,0,0.0168,0.0166,0.0134,0.0132,0.0129,0.0109,0.0123,0.0105,0.0092,0.0107,0.0089,0.0088,0.0071,0.0069,0.0069,0.0068,0.0067,0.0052,0.0051,0.0051,0.0051,0,0,0,0,0,0,0,0.017,0.0167,0.0143,0.0134,0.0131,0.0125,0.0121,0.012,0.0096,0.0106,0.0103,0.0098,0.007,0.0069,0.0068,0.0066,0.0052,0.0051,0.0051,0.0051,0.0094,0.0096,0,0,0,0,0,0,0.017,0.0169,0.0144,0.0142,0.0145,0.0125,0.0121,0.0118,0.0096,0.0092,0.0099,0.0096,0.0071,0.0068,0.0066,0.0113,0.0051,0.0051,0.005,0.0093,0.0095,0.0096,0,0,0,0,0,0,0.0171,0.0169,0.0145,0.0153,0.0149,0.0125,0.0122,0.0118,0.0118,0.0091,0.0086,0.0103,0.007,0.0067,0.0077,0.011,0.005,0.005,0.0091,0.0093,0.0096,0.0187,0,0,0,0,0,0,0.0172,0.0169,0.0171,0.0153,0.0149,0.0155,0.0123,0.0118,0.0116,0.0112,0.0093,0.0089,0.0069,0.0078,0.0076,0.0108,0.005,0.0089,0.0092,0.0095,0.0182,0.0192,0.0201,0,0,0,0,0,0.0174,0.0185,0.0172,0.0169,0.0151,0.0156,0.0154,0.0134,0.0117,0.0129,0.0116,0.0089,0.0094,0.0079,0.0077,0.0109,0.0088,0.0091,0.0095,0.0178,0.019,0.0201,0,0,0,0,0,0,0.0205,0.0182,0.0167,0.0171,0.0167,0.015,0.0157,0.0142,0.0141,0.0139,0.0108,0.0104,0.0124,0.0105,0.0089,0.0129,0.0087,0.009,0.0151,0.0162,0.0171,0.0191,0.0049,0,0,0,0,0,0.0211,0.0211,0.0193,0.0198,0.0197,0.0178,0.0177,0.0168,0.016,0.0158,0.0144,0.0134,0.0137,0.014,0.0135,0.016,0.0133,0.0179,0.0188,0.0196,0.0211,0.0212,0.0223,0.0107,0.0107,0.0107,0,0,0.0223,0.0211,0.0211,0.0204,0.0197,0.0223,0.0176,0.0185,0.0211,0.0156,0.0186,0.0164,0.015,0.0177,0.0185,0.0165,0.021,0.02,0.0207,0.0218,0.0217,0.0228,0.0238,0.0109,0.0109,0.0109,0,0,0.0261,0.024,0.0258,0.0262,0.0258,0.0256,0.0262,0.0253,0.0251,0.0275,0.0244,0.0246,0.0247,0.0247,0.0247,0.0306,0.0256,0.03,0.0368,0.0369,0.0379,0.0387,0.0345,0.0349,0.0308,0.0309,0.0309,0,0.0279,0.03,0.0267,0.0295,0.0311,0.0278,0.0322,0.0322,0.0319,0.0334,0.0298,0.0314,0.0287,0.0334,0.0345,0.0329,0.0304,0.0327,0.0382,0.039,0.0396,0.0351,0.0354,0.0313,0.0313,0.0312,0.0312,0,0.0336,0.0358,0.0373,0.0399,0.0414,0.0444,0.0442,0.0457,0.0447,0.045,0.0478,0.0441,0.0449,0.0441,0.0407,0.0451,0.0406,0.039,0.0355,0.0414,0.0362,0.0363,0.032,0.0319,0.0317,0.0316,0,0,0.0375,0.0408,0.0415,0.0453,0.0474,0.05,0.0544,0.0585,0.0631,0.0609,0.0666,0.0643,0.0607,0.0603,0.0559,0.0554,0.0557,0.0494,0.0492,0.0453,0.0529,0.0489,0.0485,0.055,0.0552,0.0553,0.0464,0,0.0437,0.0514,0.0513,0.0604,0.0651,0.0645,0.0698,0.0727,0.0736,0.078,0.0741,0.0774,0.0675,0.0682,0.0657,0.0601,0.0569,0.058,0.0477,0.0473,0.0433,0.049,0.0493,0.0416,0.0465,0.0466,0.0466,0,0.0502,0.0549,0.064,0.0722,0.0743,0.0791,0.0874,0.0919,0.096,0.0967,0.0971,0.0935,0.0926,0.0831,0.0743,0.0754,0.0641,0.0577,0.0572,0.051,0.0438,0.0369,0.0416,0.0264,0.0467,0.0467,0.0467,0,0.0558,0.0645,0.0724,0.0749,0.083,0.0874,0.0925,0.098,0.105,0.1091,0.1148,0.1098,0.1107,0.0978,0.082,0.0785,0.0719,0.0654,0.0501,0.0494,0.0465,0.0455,0.0359,0.0578,0.0578,0.0578,0.0579,0,0.0631,0.0697,0.0757,0.0801,0.0922,0.0947,0.1077,0.1111,0.1197,0.1324,0.1247,0.1329,0.115,0.1083,0.0891,0.0715,0.0765,0.0526,0.0487,0.0493,0.0487,0.0327,0.0214,0.0575,0.0576,0.0576,0.0577,0,0.0683,0.0714,0.0817,0.0909,0.0949,0.1037,0.1186,0.1292,0.1344,0.1506,0.1534,0.1524,0.1438,0.1228,0.1041,0.0835,0.0551,0.0567,0.0564,0.0528,0.0222,0.0114,-0.0049,-0.0123,0.0376,0.0375,0.0374,0,0.0716,0.0768,0.0892,0.0973,0.1019,0.1154,0.1267,0.1358,0.1485,0.1645,0.1743,0.1707,0.1713,0.1401,0.1046,0.0704,0.0526,0.0465,0.0395,0.0223,0.0074,0.0003,-0.0052,0.037,0.0369,0.0369,0.0368,0,0.0787,0.082,0.0907,0.1071,0.1196,0.1354,0.1515,0.1637,0.1782,0.1926,0.2094,0.211,0.1808,0.1483,0.1003,0.0762,0.035,0.0435,0.028,0.0087,-0.0018,-0.0111,0.0374,0.0361,0.0362,0.0362,0.0362,0.0363,0.084,0.0915,0.103,0.1193,0.1345,0.1542,0.1691,0.1878,0.2102,0.2324,0.2336,0.238,0.1888,0.1239,0.0903,0.0291,0.0267,0.0089,-0.0026,-0.0079,-0.0148,0.0302,0.0238,0.0238,0.0238,0.0238,0.0238,0,0.0917,0.1005,0.1156,0.1352,0.1534,0.1598,0.186,0.2026,0.2303,0.2465,0.2602,0.2366,0.1773,0.1166,0.0325,-0.0087,-0.022,-0.0302,-0.0394,-0.0426,0.0002,0.0007,-0.0135,-0.0135,-0.0135,-0.0135,-0.0134,-0.0134,0.0962,0.1106,0.1189,0.1482,0.1628,0.1877,0.2032,0.2271,0.243,0.263,0.263,0.2597,0.2105,0.0663,-0.0262,-0.0461,-0.0718,-0.0809,-0.0928,-0.0636,-0.0607,-0.058,-0.0597,-0.0863,-0.0864,-0.1277,-0.1282,-0.1285]}],[{"header":{"parameterUnit":"m.s-1","parameterCategory":2,"la1":30.2991,"la2":30.254,"lo1":-89.0895,"lo2":-89.0444,"dy":0.0017,"dx":0.0017,"nx":28,"ny":28,"refTime":"2025-05-17T03:00:00:Z","depth":"2","parameterNumber":2,"parameterNumberName":"U-component_of_CURRENTS"},"data":[0,0,0,0,0,0,0,0,0,0,0,0,0,0,0,0,0,0,0,0,0,0,0,0,0,0,0,0,0,0,0,0,0,0,0,0,0,0,0,0,0,0,0,0,0,0,0,0,0,0,0,0,0,0,0,0,0,0,0.313,0.313,0,0.3193,0.3194,0.3195,0.3178,0.3177,0.3176,0.3175,0.3255,0.3258,0.3261,0,0,0,0,0,0,0,0,0,0,0,0,0,0.3077,0.3078,0.313,0.3131,0.3131,0.3193,0.3194,0.3195,0.3178,0.3177,0.3176,0.3175,0.3254,0.3258,0.3262,0,0,0,0,0,0,0,0,0,0,0,0,0,0.3115,0.3078,0.3129,0.3132,0.3133,0.3193,0.3194,0.3195,0.3179,0.3177,0.3175,0.3174,0.3253,0.3258,0.3262,0.3325,0,0,0.3277,0.3279,0,0,0,0,0,0,0,0,0.3112,0.3116,0.3131,0.3132,0.3133,0.3178,0.3205,0.324,0.3179,0.316,0.3175,0.3173,0.3233,0.3239,0.3252,0.3328,0.3332,0.3277,0.328,0.3282,0.3283,0,0,0,0,0,0,0,0.311,0.3114,0.3153,0.3132,0.3133,0.3159,0.3161,0.3212,0.3204,0.3161,0.3161,0.3171,0.3233,0.3248,0.3254,0.3333,0.3277,0.3281,0.3284,0.3286,0.3488,0.349,0,0,0,0,0,0,0.3103,0.3111,0.3151,0.3155,0.312,0.3161,0.3164,0.3164,0.3203,0.3208,0.3172,0.317,0.3241,0.3249,0.3257,0.3377,0.3282,0.3286,0.3289,0.3485,0.3488,0.3491,0,0,0,0,0,0,0.3101,0.3105,0.3149,0.3137,0.3144,0.3163,0.3164,0.3166,0.3192,0.3212,0.3216,0.3197,0.324,0.325,0.3312,0.3378,0.3289,0.3293,0.3482,0.3486,0.349,0.359,0,0,0,0,0,0,0.3099,0.3104,0.3113,0.3136,0.3144,0.3194,0.3166,0.3168,0.3201,0.3199,0.3235,0.3239,0.3239,0.3305,0.3317,0.3383,0.3297,0.3479,0.3484,0.3489,0.3584,0.3597,0.3608,0,0,0,0,0,0.3097,0.3109,0.3112,0.3118,0.3151,0.3196,0.3203,0.321,0.3204,0.3226,0.3247,0.3239,0.3343,0.3311,0.3325,0.3394,0.3477,0.3483,0.3488,0.3578,0.3594,0.3608,0,0,0,0,0,0,0.309,0.311,0.3113,0.313,0.3167,0.3194,0.3217,0.3228,0.3264,0.3267,0.3274,0.3282,0.3362,0.3364,0.3328,0.3464,0.3409,0.3418,0.3473,0.3489,0.3501,0.3458,0.3301,0,0,0,0,0,0.3095,0.3108,0.3138,0.3156,0.3175,0.3203,0.3226,0.324,0.327,0.3284,0.3308,0.3343,0.3398,0.3428,0.3465,0.3547,0.3541,0.3598,0.3611,0.3621,0.3596,0.3671,0.3688,0.351,0.351,0.351,0,0,0.3097,0.3112,0.3119,0.3157,0.3182,0.3227,0.3213,0.3259,0.3305,0.3292,0.336,0.3391,0.3427,0.351,0.3547,0.3521,0.3671,0.3628,0.3637,0.3605,0.3679,0.3696,0.3711,0.3514,0.3513,0.3512,0,0,0.3113,0.3124,0.3144,0.3177,0.3227,0.3257,0.3277,0.3323,0.335,0.3431,0.3431,0.3493,0.3575,0.3607,0.3638,0.3744,0.3732,0.3768,0.3803,0.3879,0.3894,0.3907,0.3927,0.3941,0.3776,0.3776,0.3777,0,0.3117,0.3143,0.3161,0.3196,0.3232,0.3274,0.3321,0.3368,0.343,0.3464,0.3464,0.3586,0.3623,0.3717,0.3747,0.3774,0.3787,0.3748,0.3895,0.3907,0.3919,0.3936,0.395,0.3782,0.3781,0.3781,0.378,0,0.3146,0.3178,0.3198,0.3253,0.3299,0.3349,0.3414,0.3464,0.3515,0.3562,0.3664,0.3713,0.3779,0.3818,0.3818,0.3922,0.3895,0.3902,0.3854,0.3943,0.3955,0.3968,0.379,0.3788,0.3786,0.3785,0,0,0.3125,0.3202,0.321,0.3239,0.3335,0.3366,0.3461,0.355,0.3611,0.3687,0.3771,0.3866,0.3885,0.3916,0.3939,0.3991,0.4098,0.3976,0.3978,0.3987,0.4228,0.4115,0.4117,0.4138,0.4141,0.4143,0.4206,0,0.3148,0.3207,0.3255,0.3329,0.3367,0.3437,0.3522,0.3608,0.3695,0.3788,0.3858,0.3954,0.3932,0.3983,0.4036,0.4094,0.4134,0.4077,0.4145,0.4145,0.4029,0.413,0.3805,0.3825,0.4218,0.422,0.4221,0,0.3157,0.3198,0.3264,0.3357,0.3382,0.3444,0.3565,0.3651,0.3793,0.3866,0.396,0.4018,0.412,0.4094,0.4209,0.4176,0.4195,0.4216,0.4221,0.4077,0.4056,0.3801,0.3833,0.4242,0.424,0.4238,0.4237,0,0.3106,0.3202,0.325,0.328,0.3398,0.3447,0.353,0.3669,0.3753,0.392,0.3997,0.4118,0.4204,0.4256,0.4301,0.4278,0.4402,0.4394,0.4292,0.4283,0.3994,0.3955,0.4453,0.4453,0.4453,0.4453,0.4453,0,0.3099,0.3132,0.3226,0.3244,0.3326,0.342,0.3527,0.3632,0.3791,0.3904,0.403,0.4125,0.4252,0.4334,0.4345,0.4355,0.4453,0.4294,0.4303,0.402,0.3984,0.4326,0.4311,0.4455,0.4454,0.4454,0.4454,0,0.3034,0.3093,0.3144,0.3257,0.3298,0.3356,0.3517,0.3595,0.3758,0.391,0.3971,0.4169,0.4287,0.4357,0.4467,0.4413,0.4436,0.4402,0.4031,0.3994,0.4246,0.4236,0.4308,0.4305,0.4302,0.43,0.4298,0,0.3005,0.3021,0.3125,0.3158,0.3212,0.3311,0.3388,0.3567,0.3665,0.3917,0.3988,0.4161,0.4235,0.4335,0.431,0.4301,0.4391,0.3971,0.3866,0.4236,0.4238,0.4231,0.4224,0.3526,0.3518,0.3511,0.3506,0,0.295,0.2983,0.3027,0.3092,0.3163,0.3242,0.3372,0.3424,0.3644,0.3746,0.3888,0.396,0.4097,0.396,0.3975,0.3924,0.3951,0.3835,0.4355,0.3613,0.3504,0.3504,0.3522,0.3447,0.3453,0.3457,0.3461,0.3463,0.2906,0.292,0.2968,0.303,0.3094,0.3142,0.3148,0.3267,0.335,0.346,0.3653,0.3644,0.3717,0.357,0.3458,0.3378,0.3648,0.3468,0.3486,0.3512,0.3411,0.3303,0.3187,0.3191,0.3194,0.3198,0.3201,0,0.284,0.2868,0.2905,0.2945,0.293,0.3037,0.3109,0.3052,0.3044,0.3195,0.3248,0.3002,0.292,0.2989,0.2779,0.2766,0.272,0.2646,0.2561,0.2623,0.2677,0.2531,0.2075,0.2071,0.2067,0.2064,0,0,0.2808,0.2797,0.2813,0.2763,0.2789,0.2739,0.2735,0.267,0.2698,0.2615,0.2603,0.2818,0.2921,0.2473,0.2411,0.2207,0.2394,0.2116,0.3028,0.2994,0.3043,0.317,0.3017,0,0,0,0,0]},{"header":{"parameterUnit":"m.s-1","parameterCategory":2,"la1":30.2991,"la2":30.254,"lo1":-89.0895,"lo2":-89.0444,"dy":0.0017,"dx":0.0017,"nx":28,"ny":28,"refTime":"2025-05-17T03:00:00:Z","depth":"2","parameterNumber":3,"parameterNumberName":"V-component_of_CURRENTS"},"data":[0,0,0,0,0,0,0,0,0,0,0,0,0,0,0,0,0,0,0,0,0,0,0,0,0,0,0,0,0,0,0,0,0,0,0,0,0,0,0,0,0,0,0,0,0,0,0,0,0,0,0,0,0,0,0,0,0,0,0.0031,0.003,0,0.0001,0.0001,0.0001,-0.0027,-0.0028,-0.0028,-0.0029,-0.007,-0.0071,-0.0071,0,0,0,0,0,0,0,0,0,0,0,0,0,0.007,0.0069,0.0031,0.003,0.003,0.0001,0.0001,0.0001,-0.0027,-0.0028,-0.0028,-0.0029,-0.007,-0.007,-0.0071,0,0,0,0,0,0,0,0,0,0,0,0,0,0.005,0.0069,0.0031,0.0011,0.0009,0.0001,0.0001,0.0001,-0.0027,-0.0028,-0.0028,-0.0029,-0.007,-0.007,-0.0071,-0.0061,0,0,-0.0074,-0.0074,0,0,0,0,0,0,0,0,0.0051,0.0049,0.0014,0.0012,0.001,-0.0012,-0.0001,-0.0021,-0.0027,-0.0011,-0.0029,-0.003,-0.0052,-0.0055,-0.0055,-0.0063,-0.0064,-0.0074,-0.0075,-0.0075,-0.0075,0,0,0,0,0,0,0,0.0052,0.005,0.0021,0.0014,0.0011,0.0005,0.0002,-0.0004,-0.0025,-0.0013,-0.0015,-0.0021,-0.0054,-0.0054,-0.0057,-0.0065,-0.0074,-0.0075,-0.0075,-0.0076,-0.0055,-0.0054,0,0,0,0,0,0,0.0052,0.0051,0.0022,0.002,0.0026,0.0005,0.0001,-0.0002,-0.0025,-0.003,-0.0021,-0.0023,-0.0052,-0.0056,-0.0058,-0.0026,-0.0075,-0.0076,-0.0076,-0.0056,-0.0055,-0.0054,0,0,0,0,0,0,0.0053,0.005,0.0023,0.0033,0.0029,0.0005,0.0001,-0.0003,-0.0002,-0.0032,-0.0036,-0.0016,-0.0053,-0.0057,-0.0052,-0.0029,-0.0076,-0.0077,-0.0058,-0.0056,-0.0055,0.0025,0,0,0,0,0,0,0.0055,0.0051,0.0054,0.0033,0.0028,0.0031,0.0002,-0.0003,-0.0006,-0.0009,-0.0029,-0.0034,-0.0054,-0.005,-0.0053,-0.0031,-0.0078,-0.0059,-0.0057,-0.0055,0.0021,0.0029,0.0036,0,0,0,0,0,0.0056,0.0067,0.0054,0.0051,0.0031,0.0031,0.003,0.0011,-0.0005,0.0006,-0.0008,-0.0034,-0.0039,-0.0049,-0.0053,-0.0031,-0.006,-0.0058,-0.0055,0.0018,0.0028,0.0036,0,0,0,0,0,0,0.0089,0.0064,0.005,0.0053,0.0046,0.0026,0.0032,0.0018,0.0016,0.0014,-0.0017,-0.0022,-0.0011,-0.003,-0.0041,-0.0019,-0.0055,-0.0053,0.0002,0.0011,0.0018,0.0039,-0.0079,0,0,0,0,0,0.0096,0.0095,0.0074,0.0078,0.0075,0.0055,0.0053,0.0043,0.0034,0.0032,0.0015,0.0002,-0.0002,-0.0003,-0.0012,0.0004,-0.0025,0.0014,0.0022,0.0029,0.0043,0.0023,0.003,-0.0046,-0.0046,-0.0046,0,0,0.0108,0.0095,0.0094,0.0084,0.0076,0.0095,0.0053,0.0059,0.008,0.0028,0.0053,0.0027,0.0007,0.0023,0.0027,0.0011,0.0033,0.0032,0.0038,0.0049,0.0027,0.0034,0.0041,-0.0044,-0.0045,-0.0045,0,0,0.0142,0.0123,0.0138,0.0139,0.0132,0.0127,0.0131,0.0119,0.0118,0.0136,0.0103,0.0095,0.009,0.008,0.0074,0.0119,0.0071,0.0113,0.0172,0.0153,0.0159,0.0164,0.0126,0.0128,0.0119,0.012,0.012,0,0.016,0.0177,0.0145,0.0167,0.018,0.0146,0.0183,0.0181,0.0175,0.0185,0.0156,0.0149,0.0121,0.0144,0.0155,0.0138,0.0112,0.0139,0.0163,0.0167,0.0171,0.0132,0.0132,0.0124,0.0123,0.0123,0.0122,0,0.0209,0.0227,0.0239,0.0257,0.0269,0.0294,0.0288,0.03,0.029,0.0286,0.0298,0.0256,0.0251,0.0237,0.021,0.0229,0.0195,0.0172,0.0141,0.0184,0.0139,0.0138,0.013,0.0128,0.0127,0.0126,0,0,0.0246,0.027,0.0277,0.0309,0.0323,0.0343,0.0379,0.0409,0.0443,0.0417,0.0454,0.0422,0.0385,0.0375,0.0329,0.0308,0.0298,0.0258,0.0255,0.0223,0.0244,0.0205,0.0199,0.0278,0.0279,0.0279,0.0197,0,0.0301,0.0366,0.0362,0.044,0.0479,0.047,0.0514,0.0534,0.0535,0.0561,0.051,0.0525,0.0442,0.0441,0.0405,0.0334,0.0301,0.0322,0.0206,0.0202,0.0164,0.0199,0.0219,0.0147,0.0196,0.0196,0.0195,0,0.0358,0.0398,0.0476,0.0546,0.0563,0.0602,0.0669,0.0706,0.0722,0.0723,0.0709,0.0664,0.0631,0.0553,0.0443,0.046,0.0361,0.0291,0.0286,0.0226,0.0162,0.0114,0.0143,0.0193,0.0193,0.0193,0.0193,0,0.0411,0.0484,0.0553,0.0575,0.064,0.0679,0.0721,0.0756,0.0815,0.0828,0.0861,0.0795,0.078,0.0654,0.0492,0.0474,0.0363,0.0318,0.0184,0.0178,0.0161,0.0154,0.0238,0.0238,0.0238,0.0239,0.0239,0,0.0476,0.0534,0.0584,0.0622,0.0729,0.0747,0.0856,0.0881,0.0941,0.1037,0.0948,0.099,0.0807,0.0714,0.0544,0.0364,0.0396,0.0204,0.0164,0.0187,0.0184,0.0198,0.0194,0.0236,0.0236,0.0237,0.0237,0,0.0523,0.055,0.0639,0.0717,0.0753,0.0831,0.0957,0.1044,0.1073,0.1191,0.1206,0.115,0.103,0.082,0.0622,0.0447,0.027,0.0192,0.022,0.0185,0.008,0.0081,0.0041,0.0039,0.0038,0.0037,0.0035,0,0.0553,0.0598,0.0706,0.0778,0.0818,0.0936,0.1036,0.111,0.1216,0.1301,0.1374,0.1284,0.1241,0.0909,0.0605,0.03,0.0258,0.0104,0.0071,0.0099,0.0064,0.0068,0.0072,0.0069,0.0068,0.0068,0.0067,0,0.0615,0.0643,0.0717,0.0863,0.0975,0.1118,0.126,0.136,0.1471,0.1547,0.1626,0.1587,0.1287,0.0982,0.0558,0.035,0.0153,0.0082,0.0123,0.0118,0.0119,0.0087,0.0091,0.0062,0.0063,0.0063,0.0063,0.0064,0.0662,0.0727,0.0823,0.0969,0.1105,0.1281,0.1408,0.1556,0.1713,0.184,0.1801,0.1741,0.1399,0.0854,0.0489,0.0109,0.0131,-0.0019,-0.0014,-0.0009,0.0011,0.001,-0.0066,-0.0066,-0.0066,-0.0066,-0.0067,0,0.0729,0.0804,0.0933,0.1105,0.1259,0.1327,0.1554,0.1665,0.1846,0.1947,0.1982,0.1637,0.1288,0.0893,0.0332,-0.0008,-0.0027,-0.0126,-0.0073,-0.0065,-0.0059,-0.004,-0.0132,-0.0133,-0.0134,-0.0135,0,0,0.0768,0.0887,0.0956,0.1204,0.1334,0.155,0.1683,0.1827,0.193,0.1996,0.1974,0.1895,0.1412,0.099,0.0526,0.02,0.0146,0.0131,0.0219,0.0344,0.0355,0.0037,0.008,0,0,0,0,0]}],[{"header":{"parameterUnit":"m.s-1","parameterCategory":2,"la1":30.2991,"la2":30.254,"lo1":-89.0895,"lo2":-89.0444,"dy":0.0017,"dx":0.0017,"nx":28,"ny":28,"refTime":"2025-05-17T03:00:00:Z","depth":"4","parameterNumber":2,"parameterNumberName":"U-component_of_CURRENTS"},"data":[0,0,0,0,0,0,0,0,0,0,0,0,0,0,0,0,0,0,0,0,0,0,0,0,0,0,0,0,0,0,0,0,0,0,0,0,0,0,0,0,0,0,0,0,0,0,0,0,0,0,0,0,0,0,0,0,0,0,0.1974,0.1974,0,0.1972,0.1972,0.1972,0.2009,0.201,0.2011,0.2012,0.205,0.205,0.205,0,0,0,0,0,0,0,0,0,0,0,0,0,0.1962,0.1963,0.1974,0.1974,0.1974,0.1972,0.1972,0.1972,0.2009,0.201,0.2012,0.2013,0.205,0.205,0.205,0,0,0,0,0,0,0,0,0,0,0,0,0,0.1965,0.1963,0.1974,0.1992,0.1994,0.1972,0.1972,0.1972,0.2009,0.201,0.2012,0.2013,0.205,0.205,0.205,0.202,0,0,0.205,0.205,0,0,0,0,0,0,0,0,0.1965,0.1965,0.1989,0.1991,0.1992,0.1993,0.1982,0.199,0.2009,0.2003,0.2012,0.2014,0.2033,0.2035,0.203,0.2022,0.2023,0.205,0.205,0.205,0.205,0,0,0,0,0,0,0,0.1965,0.1965,0.1973,0.1989,0.1991,0.1985,0.1987,0.1983,0.201,0.2004,0.2006,0.2006,0.2034,0.203,0.2032,0.2024,0.205,0.205,0.205,0.205,0.2131,0.2133,0,0,0,0,0,0,0.1966,0.1965,0.1973,0.1973,0.1982,0.1984,0.1986,0.1991,0.2009,0.2013,0.2005,0.2008,0.2029,0.2031,0.2033,0.2118,0.205,0.205,0.205,0.2129,0.2131,0.2134,0,0,0,0,0,0,0.1965,0.1966,0.1973,0.1969,0.1969,0.1983,0.1987,0.199,0.2027,0.201,0.2015,0.2044,0.203,0.2033,0.2066,0.2115,0.205,0.205,0.2126,0.2129,0.2132,0.2211,0,0,0,0,0,0,0.1965,0.1966,0.1992,0.1969,0.197,0.1975,0.1986,0.1989,0.2022,0.2027,0.2044,0.2047,0.2032,0.2066,0.2066,0.2114,0.205,0.2124,0.2128,0.2131,0.2206,0.2216,0.2225,0,0,0,0,0,0.1965,0.1981,0.1993,0.1995,0.1997,0.1976,0.1976,0.1989,0.2023,0.2032,0.2058,0.2048,0.2092,0.2067,0.2067,0.2116,0.2122,0.2127,0.2131,0.2201,0.2214,0.2225,0,0,0,0,0,0,0.1989,0.1986,0.1999,0.2016,0.2006,0.1982,0.2004,0.2013,0.204,0.2067,0.2062,0.2065,0.2116,0.2104,0.2077,0.2153,0.2111,0.2115,0.2164,0.2176,0.2186,0.2187,0.205,0,0,0,0,0,0.2005,0.2024,0.2007,0.2025,0.2028,0.2028,0.2034,0.2038,0.2046,0.2063,0.208,0.2106,0.2126,0.2143,0.2151,0.2183,0.219,0.222,0.223,0.2238,0.2241,0.2301,0.2317,0.2149,0.2149,0.2149,0,0,0.202,0.2023,0.2036,0.2034,0.2039,0.2035,0.2037,0.2052,0.2067,0.2061,0.2118,0.2138,0.2143,0.2184,0.2207,0.2186,0.2292,0.2244,0.2251,0.2249,0.2308,0.2324,0.2339,0.2152,0.2152,0.2151,0,0,0.2035,0.2065,0.2078,0.2074,0.208,0.2072,0.2086,0.2089,0.2118,0.2153,0.2169,0.2217,0.2245,0.2258,0.2267,0.2335,0.2341,0.2357,0.2409,0.2469,0.2483,0.2495,0.2532,0.2547,0.2364,0.2364,0.2364,0,0.2059,0.2062,0.2076,0.2078,0.2083,0.2095,0.2097,0.2117,0.2136,0.2177,0.2186,0.2276,0.2276,0.2336,0.2363,0.2358,0.2392,0.2361,0.2482,0.2494,0.2506,0.254,0.2556,0.2368,0.2368,0.2367,0.2367,0,0.2059,0.2076,0.2084,0.2096,0.2105,0.2108,0.2124,0.2165,0.2214,0.2243,0.2336,0.235,0.2411,0.2423,0.2411,0.2504,0.2502,0.2486,0.2449,0.2527,0.2559,0.2574,0.2374,0.2373,0.2372,0.2371,0,0,0.2063,0.2081,0.2087,0.2096,0.2115,0.2115,0.2167,0.2207,0.2275,0.2328,0.2417,0.2463,0.2515,0.2528,0.2541,0.2583,0.2686,0.2581,0.2582,0.2613,0.2826,0.2643,0.2641,0.271,0.2713,0.2715,0.2816,0,0.2056,0.2061,0.2077,0.2094,0.2092,0.2134,0.2183,0.224,0.2312,0.2406,0.2468,0.2555,0.2544,0.26,0.2647,0.2678,0.273,0.266,0.2748,0.275,0.2575,0.2653,0.2725,0.2827,0.2831,0.2833,0.2835,0,0.2034,0.2041,0.2057,0.2096,0.2108,0.2137,0.2236,0.2284,0.2416,0.2488,0.26,0.2657,0.2749,0.2724,0.2835,0.2803,0.283,0.2839,0.2843,0.2652,0.2594,0.2733,0.2861,0.2859,0.2857,0.2856,0.2854,0,0.1999,0.2024,0.2043,0.2051,0.2104,0.2153,0.2205,0.2326,0.2394,0.2564,0.2643,0.2766,0.2843,0.2903,0.2938,0.2914,0.3041,0.3004,0.2863,0.2851,0.2949,0.2934,0.3087,0.3087,0.3086,0.3086,0.3086,0,0.1951,0.1969,0.2039,0.2041,0.209,0.2158,0.2251,0.2331,0.2475,0.256,0.2702,0.2782,0.2899,0.2978,0.2993,0.2973,0.3098,0.2881,0.2869,0.298,0.2968,0.296,0.2944,0.309,0.3089,0.3088,0.3088,0,0.189,0.1936,0.1954,0.2032,0.2066,0.2114,0.224,0.2306,0.2471,0.2586,0.2647,0.2828,0.2934,0.3013,0.3108,0.302,0.3026,0.299,0.3114,0.3105,0.2783,0.277,0.2835,0.2829,0.2824,0.2821,0.2817,0,0.1849,0.1858,0.1937,0.1951,0.1987,0.2074,0.2127,0.2286,0.2351,0.2583,0.2617,0.2797,0.2892,0.2889,0.299,0.3013,0.2974,0.2948,0.2843,0.2778,0.276,0.2755,0.2748,0.281,0.2809,0.2807,0.2806,0,0.1762,0.1818,0.1825,0.1863,0.1912,0.1962,0.2053,0.2084,0.2272,0.2436,0.2528,0.2595,0.2711,0.2783,0.2825,0.2833,0.2942,0.2898,0.2907,0.2808,0.2749,0.2734,0.2734,0.279,0.2792,0.2794,0.2795,0,0.1702,0.1686,0.172,0.1736,0.1796,0.1819,0.1886,0.1955,0.2046,0.2284,0.2316,0.2515,0.2685,0.2693,0.2736,0.2727,0.2675,0.2557,0.2583,0.2602,0.2475,0.2362,0.2284,0,0,0,0,0,0.1625,0.1588,0.1587,0.1586,0.1647,0.1696,0.1814,0.1895,0.2072,0.2069,0.2182,0.2281,0.2364,0.2482,0.2426,0.2632,0.2682,0.2553,0.2558,0.27,0.2719,0.259,0,0,0,0,0,0,0.1563,0.1558,0.1534,0.1473,0.1459,0.152,0.1595,0.1717,0.1728,0.1919,0.1988,0.2128,0.2258,0.2373,0.2381,0.2409,0.2359,0.2674,0.2667,0.269,0.2707,0.2722,0.2596,0,0,0,0,0]},{"header":{"parameterUnit":"m.s-1","parameterCategory":2,"la1":30.2991,"la2":30.254,"lo1":-89.0895,"lo2":-89.0444,"dy":0.0017,"dx":0.0017,"nx":28,"ny":28,"refTime":"2025-05-17T03:00:00:Z","depth":"4","parameterNumber":3,"parameterNumberName":"V-component_of_CURRENTS"},"data":[0,0,0,0,0,0,0,0,0,0,0,0,0,0,0,0,0,0,0,0,0,0,0,0,0,0,0,0,0,0,0,0,0,0,0,0,0,0,0,0,0,0,0,0,0,0,0,0,0,0,0,0,0,0,0,0,0,0,0.003,0.003,0,0.0024,0.0024,0.0024,0.0009,0.0009,0.0008,0.0008,-0.0011,-0.0011,-0.0011,0,0,0,0,0,0,0,0,0,0,0,0,0,0.0047,0.0047,0.003,0.003,0.0029,0.0024,0.0024,0.0024,0.001,0.0009,0.0008,0.0008,-0.0011,-0.0011,-0.0011,0,0,0,0,0,0,0,0,0,0,0,0,0,0.0042,0.0047,0.003,0.002,0.0019,0.0024,0.0024,0.0024,0.001,0.0009,0.0008,0.0007,-0.0011,-0.0011,-0.0011,0.0003,0,0,-0.0012,-0.0012,0,0,0,0,0,0,0,0,0.0043,0.0042,0.0022,0.0021,0.0019,0.0015,0.0023,0.0016,0.001,0.0015,0.0008,0.0007,-0.0005,-0.0005,-0.0002,0.0002,0.0001,-0.0012,-0.0012,-0.0012,-0.0012,0,0,0,0,0,0,0,0.0043,0.0042,0.003,0.0021,0.002,0.0022,0.0021,0.0022,0.0011,0.0015,0.0013,0.0009,-0.0005,-0.0001,-0.0002,0.0001,-0.0012,-0.0012,-0.0012,-0.0012,0.0005,0.0005,0,0,0,0,0,0,0.004,0.0043,0.003,0.0029,0.0027,0.0022,0.0021,0.0019,0.0011,0.0009,0.001,0.0009,-0.0001,-0.0002,-0.0003,0.0019,-0.0012,-0.0012,-0.0012,0.0004,0.0005,0.0005,0,0,0,0,0,0,0.004,0.0039,0.003,0.0034,0.0033,0.0022,0.0021,0.0019,0.0023,0.0007,0.0005,0.0015,-0.0002,-0.0003,0.0006,0.0018,-0.0012,-0.0012,0.0003,0.0004,0.0005,0.0059,0,0,0,0,0,0,0.0041,0.0039,0.0043,0.0034,0.0032,0.0041,0.0021,0.0019,0.0021,0.0019,0.0011,0.0008,-0.0002,0.0006,0.0006,0.0017,-0.0012,0.0003,0.0004,0.0005,0.0057,0.0062,0.0066,0,0,0,0,0,0.0041,0.005,0.0043,0.0041,0.0036,0.0042,0.0042,0.0033,0.0022,0.0032,0.0026,0.0009,0.0011,0.0007,0.0007,0.0018,0.0002,0.0004,0.0005,0.0055,0.0061,0.0066,0,0,0,0,0,0,0.0063,0.0049,0.0041,0.0045,0.0046,0.0038,0.0046,0.0038,0.0042,0.0041,0.0022,0.0021,0.0029,0.0017,0.0013,0.0023,0.0001,0.0002,0.0039,0.0045,0.0049,0.0059,-0.0012,0,0,0,0,0,0.0068,0.0069,0.0059,0.0065,0.0065,0.0056,0.0058,0.0055,0.0052,0.0053,0.0046,0.0037,0.0034,0.0035,0.0031,0.0044,0.0016,0.0047,0.0051,0.0055,0.0062,0.0028,0.0029,0.0009,0.0009,0.0009,0,0,0.0077,0.007,0.0071,0.0069,0.0067,0.0085,0.0057,0.0066,0.0083,0.0051,0.0073,0.0055,0.0041,0.0052,0.0055,0.0045,0.0047,0.0057,0.006,0.0065,0.0029,0.0031,0.0032,0.0009,0.0009,0.0009,0,0,0.0102,0.0091,0.0104,0.011,0.0111,0.0108,0.0112,0.011,0.0111,0.013,0.0105,0.0094,0.01,0.0086,0.008,0.0107,0.007,0.0104,0.0139,0.0105,0.0107,0.0108,0.0075,0.0072,0.0108,0.0108,0.0108,0,0.0116,0.0131,0.0111,0.0132,0.0144,0.0122,0.0151,0.0152,0.0155,0.016,0.0145,0.0135,0.0116,0.012,0.0127,0.0117,0.0093,0.0122,0.0111,0.0112,0.0112,0.0077,0.0074,0.0111,0.011,0.011,0.011,0,0.0154,0.0172,0.0182,0.02,0.0211,0.0233,0.023,0.024,0.0234,0.023,0.0232,0.0202,0.0195,0.0181,0.0165,0.0158,0.0139,0.012,0.0099,0.0117,0.008,0.0075,0.0115,0.0114,0.0113,0.0112,0,0,0.0176,0.0204,0.021,0.0237,0.0252,0.0269,0.0294,0.0311,0.0333,0.0315,0.0332,0.0305,0.0276,0.0267,0.0232,0.0199,0.0171,0.0166,0.0163,0.0136,0.0098,0.008,0.0072,0.0151,0.015,0.015,0.0072,0,0.0218,0.0272,0.0274,0.0335,0.0366,0.0362,0.0393,0.0404,0.04,0.041,0.0361,0.0365,0.0313,0.031,0.0267,0.0197,0.0162,0.0194,0.0083,0.008,0.0062,0.0068,0.0148,0.0069,0.0068,0.0067,0.0066,0,0.026,0.0294,0.0358,0.0413,0.0427,0.0459,0.0502,0.053,0.0528,0.0524,0.0501,0.046,0.0412,0.0364,0.0249,0.0274,0.0195,0.0132,0.0127,0.0089,0.0053,0.0045,0.0057,0.0058,0.0059,0.0059,0.006,0,0.029,0.0355,0.0409,0.043,0.0484,0.0515,0.0548,0.0566,0.0603,0.0595,0.0605,0.0536,0.051,0.04,0.0263,0.026,0.0128,0.0105,0.0013,0.001,0.0026,0.0026,0.0025,0.0025,0.0025,0.0025,0.0026,0,0.0333,0.0381,0.0433,0.0464,0.0547,0.0567,0.0648,0.0661,0.0694,0.074,0.0669,0.067,0.0518,0.0422,0.0289,0.0137,0.0145,0.0021,-0.001,0.0051,0.0054,0.0022,0.0023,0.0023,0.0023,0.0024,0.0024,0,0.0358,0.0388,0.0462,0.0531,0.0563,0.0625,0.0725,0.0784,0.0795,0.0847,0.0848,0.0773,0.0649,0.0481,0.0301,0.0181,0.003,-0.0027,0.0053,0.0028,-0.0072,-0.0068,-0.0132,-0.0133,-0.0134,-0.0135,-0.0136,0,0.0374,0.0412,0.051,0.0568,0.0604,0.0703,0.078,0.0834,0.0892,0.0908,0.093,0.0832,0.0756,0.0492,0.0307,0.0052,0.0011,-0.0075,-0.0079,-0.0065,-0.0088,-0.0082,-0.0076,-0.0138,-0.0138,-0.0138,-0.0138,0,0.0408,0.044,0.05,0.0617,0.0707,0.0819,0.0918,0.0965,0.1024,0.1029,0.1,0.0861,0.0719,0.0504,0.0303,0.0118,-0.0025,-0.0087,-0.0086,-0.0091,-0.0072,-0.0093,-0.0086,-0.0142,-0.0142,-0.0141,-0.0141,0,0.0434,0.0482,0.056,0.0668,0.0782,0.0894,0.0951,0.1017,0.1073,0.1073,0.1063,0.0902,0.0815,0.0539,0.0354,0.0168,0.0116,0.0042,0.0035,0.0037,0.01,0.0149,0.0125,0,0,0,0,0,0.0459,0.0513,0.0609,0.0726,0.084,0.091,0.1027,0.1074,0.1118,0.1108,0.1087,0.0953,0.0682,0.0571,0.0383,0.0321,0.0075,0.0091,-0.0016,-0.0163,-0.0159,-0.0117,0,0,0,0,0,0,0.0476,0.0557,0.0606,0.0753,0.0839,0.0974,0.1052,0.1087,0.1081,0.1086,0.0954,0.0885,0.0631,0.0788,0.0372,0.0316,0.0217,-0.0031,-0.0036,-0.0165,-0.0162,-0.0158,-0.0113,0,0,0,0,0]}]]